Tri-Cities, TN

9:16 PM EST on December 09, 2019 (GMT -0500)
Tri-Cities Regional Tennessee / Virginia

Weather History for KTRI - October, 2019

Change the Weather History Date:

Thursday, October 31, 2019

  Actual Average Record
Temperature  
Mean Temperature 56 °F 52 °F  
Max Temperature 77 °F 65 °F 80 °F (1974)
Min Temperature 35 °F 39 °F 24 °F (1952)
Degree Days  
Heating Degree Days 9 13  
Month to date heating degree days 163 282  
Since 1 July heating degree days 163 335  
Cooling Degree Days 0 0  
Month to date cooling degree days 67 12  
Year to date cooling degree days 1452 980  
Growing Degree Days 6 (Base 50)    
Moisture  
Dew Point 55 °F    
Average Humidity 85    
Maximum Humidity 100    
Minimum Humidity 69    
Precipitation  
Precipitation 1.05 in 0.08 in 1.30 in (1961)
Month to date precipitation 6.60 2.10  
Year to date precipitation 48.21 34.54  
Snow  
Snow 0.00 in 0.00 in - ()
Month to date snowfall 0.0 0.1  
Since 1 July snowfall 0.0 0.1  
Since 1 September snowfall 0.0 0.1  
Snow Depth 0.00 in    
Sea Level Pressure  
Sea Level Pressure 29.84 in    
Wind  
Wind Speed 9 mph (West)    
Max Wind Speed 31 mph    
Max Gust Speed 37 mph    
Visibility 6 miles    
Events Rain    
T = Trace of Precipitation, MM = Missing Value Source: NWS Daily Summary

Daily Weather History Graph

Daily Weather History Graph

Search for Another Location

Airport or City:

Astronomy

Oct. 31, 2019 Rise Set
Actual Time 7:51 AM EDT 6:34 PM EDT
Civil Twilight 7:25 AM EDT 7:00 PM EDT
Nautical Twilight 6:54 AM EDT 7:31 PM EDT
Astronomical Twilight 6:24 AM EDT 8:01 PM EDT
Moon 11:34 AM EDT (10/31) 9:34 PM EDT (10/31)
Length of Visible Light 11h 35m
Length of Day
10h 42m
Waxing Crescent, 15% of the Moon is Illuminated
Oct 31
Waxing Crescent
Nov 4
First Quarter
Nov 12
Full
Nov 19
Last Quarter
Nov 26
New

Hourly Weather History & Observations

Time (EDT) Temp. Windchill Dew Point Humidity Pressure Visibility Wind Dir Wind Speed Gust Speed Precip Events Conditions
12:53 AM 63.0 °F - 61.0 °F 93% 29.90 in 10.0 mi NNW 3.5 mph - 0.00 in   Overcast
2:53 AM 63.0 °F - 61.0 °F 93% 29.86 in 10.0 mi Calm Calm - N/A   Mostly Cloudy
3:35 AM 62.1 °F - 61.0 °F 96% 29.91 in 6.0 mi Calm Calm - N/A   Overcast
3:53 AM 61.0 °F - 60.1 °F 97% 29.85 in 6.0 mi Calm Calm - N/A   Overcast
4:20 AM 62.1 °F - 60.1 °F 93% 29.88 in 3.0 mi Calm Calm - N/A   Overcast
4:53 AM 61.0 °F - 60.1 °F 97% 29.81 in 3.0 mi Calm Calm - N/A   Overcast
5:53 AM 61.0 °F - 60.1 °F 97% 29.81 in 4.0 mi Calm Calm - N/A   Overcast
6:53 AM 62.1 °F - 61.0 °F 96% 29.79 in 10.0 mi North 3.5 mph - N/A   Overcast
7:53 AM 62.1 °F - 61.0 °F 96% 29.76 in 10.0 mi Calm Calm - N/A   Mostly Cloudy
8:53 AM 64.0 °F - 62.1 °F 93% 29.75 in 7.0 mi Calm Calm - 0.00 in Rain Light Rain
9:53 AM 66.0 °F - 64.0 °F 93% 29.73 in 10.0 mi Calm Calm - 0.03 in Rain Light Rain
10:53 AM 72.0 °F - 66.0 °F 81% 29.70 in 10.0 mi SE 3.5 mph - 0.01 in   Mostly Cloudy
11:53 AM 75.9 °F - 64.9 °F 69% 29.66 in 10.0 mi South 9.2 mph - N/A   Mostly Cloudy
12:53 PM 73.9 °F - 66.9 °F 79% 29.64 in 10.0 mi SSW 6.9 mph - 0.04 in   Mostly Cloudy
1:30 PM 69.1 °F - 64.0 °F 84% 29.72 in 1.0 mi West 25.3 mph 36.8 mph 0.00 in Rain Heavy Rain
1:38 PM 64.9 °F - 62.1 °F 90% 29.72 in 1.0 mi West 29.9 mph 36.8 mph 0.11 in Rain Heavy Rain
1:53 PM 64.9 °F - 61.0 °F 87% 29.68 in 1.0 mi West 18.4 mph 33.4 mph 0.16 in Rain Light Rain
1:56 PM 64.9 °F - 61.0 °F 87% 29.74 in 2.5 mi West 19.6 mph 29.9 mph 0.00 in Rain Light Rain
2:09 PM 64.0 °F - 61.0 °F 90% 29.76 in 1.5 mi WSW 15.0 mph - 0.00 in Rain Light Rain
2:12 PM 64.0 °F - 61.0 °F 90% 29.76 in 1.0 mi West 12.7 mph - 0.00 in Rain Heavy Rain
2:21 PM 63.0 °F - 61.0 °F 93% 29.75 in 1.0 mi West 8.1 mph - 0.11 in Rain Heavy Rain
2:53 PM 61.0 °F - 59.0 °F 93% 29.73 in 1.5 mi West 18.4 mph 24.2 mph 0.21 in Rain Heavy Rain
3:26 PM 59.0 °F - 55.9 °F 90% 29.80 in 2.0 mi West 16.1 mph 28.8 mph 0.39 in Rain Heavy Rain
3:30 PM 57.9 °F - 55.9 °F 93% 29.81 in 1.5 mi West 19.6 mph 26.5 mph 0.41 in Rain Heavy Rain
3:53 PM 55.9 °F - 53.1 °F 90% 29.78 in 1.5 mi West 20.7 mph 27.6 mph 0.55 in Rain Rain
3:55 PM 55.9 °F - 52.0 °F 87% 29.83 in 4.0 mi West 19.6 mph 27.6 mph 0.00 in Rain Light Rain
4:53 PM 52.0 °F - 48.9 °F 89% 29.83 in 9.0 mi West 13.8 mph 20.7 mph 0.03 in Rain Light Rain
5:07 PM 51.1 °F - 48.9 °F 92% 29.90 in 3.0 mi West 13.8 mph - 0.01 in Rain Light Rain
5:53 PM 50.0 °F - 44.1 °F 80% 29.89 in 10.0 mi WSW 16.1 mph 24.2 mph 0.02 in   Overcast
6:05 PM 48.9 °F - 45.0 °F 86% 29.95 in 10.0 mi WSW 16.1 mph - 0.00 in Rain Light Rain
6:53 PM 46.0 °F 38.5 °F 41.0 °F 83% 29.98 in 10.0 mi West 19.6 mph 28.8 mph 0.00 in   Overcast
7:53 PM 43.0 °F 35.1 °F 35.1 °F 74% 30.06 in 10.0 mi West 17.3 mph 29.9 mph N/A   Mostly Cloudy
8:53 PM 39.9 °F 31.8 °F 33.1 °F 77% 30.09 in 10.0 mi West 15.0 mph 20.7 mph N/A   Clear
9:53 PM 37.9 °F 29.2 °F 30.9 °F 76% 30.11 in 10.0 mi WNW 15.0 mph - N/A   Scattered Clouds
10:53 PM 36.0 °F 27.1 °F 28.9 °F 76% 30.14 in 10.0 mi WNW 13.8 mph - N/A   Clear
11:53 PM 36.0 °F 28.0 °F 30.0 °F 79% 30.15 in 10.0 mi West 11.5 mph - N/A   Overcast